Lid_Strength_Index
-0 -0 0 0 0 0 1 1 3 6 5 3 2 0 -0 -1 -1 -2 -2 0 0 1 1 1 1 0 0 -0 -0 -0 -0 0 0 0 0 -0 -1 -1
0 0 0 0 0 0 1 1 1 3 5 3 2 0 -0 0 -1 -1 -1 0 1 1 1 1 1 0 0 0 0 0 0 0 0 1 0 0 0 -0
-0 0 0 -0 1 1 1 1 1 2 4 3 1 1 1 0 0 -1 -1 -1 -1 2 2 2 2 2 1 1 1 1 0 0 1 1 1 0 0 0
0 0 1 0 1 0 1 1 1 1 2 4 2 2 1 0 0 0 -0 -1 -1 1 2 3 3 2 2 2 2 2 2 2 2 2 2 2 1 1
0 0 0 0 1 1 2 1 1 1 2 3 3 1 1 0 1 0 0 -0 -0 1 2 3 3 3 3 3 4 4 4 4 4 4 4 4 3 2
-0 0 0 0 1 2 3 2 1 2 2 2 3 2 2 1 1 2 2 1 1 -0 0 0 1 2 3 4 4 4 5 6 5 5 5 5 4 3
-0 -0 -0 -0 1 2 2 3 3 4 3 3 3 3 3 2 3 2 2 1 1 0 1 0 0 -0 -0 2 1 2 4 5 6 6 7 7 7 7
1 0 -0 0 1 1 2 2 2 3 4 4 3 3 3 2 2 2 2 3 4 0 1 2 0 1 -0 -0 1 2 3 4 5 6 7 8 8 8
0 0 1 0 0 1 3 3 2 2 2 2 3 3 2 2 1 2 2 2 3 1 1 2 0 2 0 -0 3 3 4 5 5 5 6 7 8 8
0 0 0 0 0 1 3 4 3 2 2 1 1 1 1 0 1 1 1 1 1 1 1 3 1 2 0 -0 3 4 5 5 6 6 7 8 9 9
0 0 0 1 1 2 4 4 3 3 2 2 2 3 2 2 1 1 2 3 4 2 1 2 2 2 1 1 1 4 6 6 6 6 7 8 10 10
0 0 1 1 3 4 4 4 4 4 3 3 1 1 2 1 3 0 1 3 3 4 1 2 2 2 3 1 1 2 2 7 7 7 8 9 11 1
1 1 0 3 5 7 6 4 4 4 4 3 2 1 1 1 1 0 0 1 3 3 1 1 2 2 2 3 1 0 0 2 1 5 9 10 11 7
1 1 0 5 7 6 5 5 6 5 5 5 2 2 2 2 1 1 0 0 -0 1 -0 -0 2 2 3 3 3 1 1 0 0 0 1 8 10 10
0 1 4 5 5 4 4 5 5 4 6 6 6 5 4 1 0 0 0 -0 -0 -0 -0 -0 1 2 2 3 3 2 2 1 0 1 1 2 2 3
1 0 1 3 4 5 4 3 4 5 5 6 7 5 4 5 2 1 2 2 2 2 -0 -0 -0 1 2 1 2 3 2 3 1 1 1 0 0 -0
4 0 1 1 4 4 5 4 5 6 6 5 6 7 6 5 5 4 2 2 3 3 3 1 -0 0 3 1 2 2 2 2 1 1 1 2 1 0
2 2 2 2 4 5 5 6 6 6 4 5 6 5 6 7 6 6 5 4 5 5 4 2 2 2 2 2 4 3 2 2 1 1 1 2 2 1
1 2 2 2 3 4 5 5 6 6 5 4 5 6 5 5 6 7 7 7 7 6 6 5 4 3 5 6 3 7 2 2 2 2 1 2 2 1
1 2 3 4 5 6 6 5 5 5 6 6 5 5 5 5 5 7 7 7 6 6 7 6 6 6 7 7 7 5 9 4 2 3 2 2 3 5
3 3 4 5 6 5 5 5 5 5 5 5 5 6 6 5 5 5 5 8 7 5 7 7 6 5 5 5 7 6 4 9 7 5 3 3 3 3
6 6 7 8 9 9 9 7 6 6 5 5 4 4 5 5 5 4 3 4 4 5 5 5 4 5 5 6 7 7 6 4 6 8 8 7 4 6
4 4 6 8 9 10 10 10 8 7 7 6 4 4 4 6 4 4 4 4 5 5 4 4 4 4 4 5 6 6 5 5 5 5 4 8 7 7